ECHOSTAR 19

Last updated on Thu Nov 21 2024 00:02:43 GMT+0000 (Coordinated Universal Time)

1 41893U 16079A 24324.56123715 -.00000136 00000+0 00000+0 0 9992 2 41893 0.0125 317.7314 0001632 287.2555 279.0459 1.00270383 28940
UTC large
Height (km)
Speed (km/s)
/
Latitude / Longitude
Inclination (degrees)
Orbital Period (minutes)
Azimuth
Elevation
Range (km)
Doppler Factor

Next 0 passes for location: London (51.5072 / 0.1276)

Sorry there are no passes over London.